Location: Jaite
(41.2884°N, 81.5737°W)
Time: 17:31:39
(UTC+00:00)

Cosmos 1269 Rocket - Pass Details

Date: 18 January 2020
Orbit: 773 x 779 km, 74.1° (Epoch: 27 February)

Event Time Altitude Azimuth Distance (km) Brightness Sun altitude
Rises 00:04:27 0° 344° (NNW) 3,258 7.3 -18.6°
Reaches altitude 10° 00:06:53 10° 348° (NNW) 2,327 6.5 -19.0°
Maximum altitude 00:12:06 59° 68° (ENE) 892 4.0 -20.0°
Enters shadow 00:17:06 11° 147° (SSE) 2,244 6.2 -20.9°
